Regional Weather Roundup
Issued by NWS Charleston, SC

Current Version | Previous Version | Graphics & Text | Print | Product List | Glossary On
Versions: 1 2 3 4 5 6 7 8 9 10 11 12 13 14 15 16 17 18 19 20 21 22 23 24 25 26 27 28 29 30 31 32 33 34 35 36 37 38 39 40 41 42 43 44 45 46 47 48 49 50
000 ASUS42 KCHS 010126 RWRCHS REGIONAL WEATHER ROUNDUP NATIONAL WEATHER SERVICE CHARLESTON SC 800 PM EST SAT JAN 31 2015 NOTE: "FAIR" INDICATES FEW OR NO CLOUDS BELOW 12,000 FEET WITH NO SIGNIFICANT WEATHER AND/OR OBSTRUCTIONS TO VISIBILITY. NOT ALL STATIONS ARE QUALITY CONTROLLED BY THE NATIONAL WEATHER SERVICE. USE DATA WITH CAUTION...ESPECIALLY DEWPOINT OBSERVATIONS. SCZ027-030-031-034>040-042>050-010200- ...SOUTHEAST SOUTH CAROLINA... CITY SKY/WX TMP DP RH WIND PRES REMARKS N CHARLESTON FAIR 41 26 55 S6 30.37S WATERFRONT PRK N/A 45 N/A N/A S3 N/A MOUNT PLEASANT FAIR 36 30 80 CALM 30.37S PINOPOLIS N/A 45 25 45 S5 30.28R MONCKS CORNER FAIR 41 28 60 CALM 30.36S SUMMERVILLE NOT AVBL BEAUFORT MCAS FAIR 41 29 62 S3 30.37S BEAUFORT ARPT FAIR 37 34 87 S3 30.36S HILTON HEAD IS FAIR 37 32 81 CALM 30.38S WALTERBORO FAIR 43 23 45 CALM 30.37S ALLENDALE FAIR 41 28 60 S6 30.34S ...SOUTHERN MIDLANDS AND PEE DEE... CITY SKY/WX TMP DP RH WIND PRES REMARKS GEORGETOWN NOT AVBL KINGSTREE NOT AVBL ORANGEBURG FAIR 41 25 53 CALM 30.34S BARNWELL FAIR 45 32 61 CALM 30.35R AIKEN FAIR 43 28 56 CALM 30.36S MANNING FAIR 41 27 56 CALM 30.35S COLUMBIA MOCLDY 44 28 53 CALM 30.34R SUMTER CLOUDY 42 28 57 S2 30.32S FLORENCE FAIR 40 20 44 S3 30.34R MYRTLE BEACH CLEAR 41 25 52 SW6 30.38R N MYRTLE BEACH FAIR 39 29 67 SW6 30.35R WCI 35 $$ GAZ063-065-086>088-099>101-113>116-118-119-134>141-150-010200- ...SOUTHEAST GEORGIA... CITY SKY/WX TMP DP RH WIND PRES REMARKS SAVANNAH ARPT CLEAR 42 25 50 SE5 30.37S HUNTER AAF PTCLDY 40 29 67 CALM 30.35S FORT STEWART PTCLDY 42 30 63 CALM 30.35S STATESBORO CLEAR 46 27 48 SE5 30.35R SYLVANIA PTCLDY 44 29 54 CALM 30.36R CLAXTON FAIR 45 32 61 CALM 30.36R ...CSRA...CENTRAL AND FAR SOUTHEAST GEORGIA... CITY SKY/WX TMP DP RH WIND PRES REMARKS THOMSON CLOUDY 46 32 57 CALM 30.37S AUGUSTA-BUSH MOCLDY 45 22 40 CALM 30.33S AUGUSTA-DANIEL MOCLDY 51 17 26 S3 30.33S SWAINSBORO FAIR 46 16 29 CALM 30.33F VIDALIA PTCLDY 48 30 49 SE7 30.34R EASTMAN FAIR 40 32 73 CALM 30.35S HAZLEHURST FAIR 50 31 48 SE6 30.32R ALMA MOCLDY 48 31 51 E6 30.33R WAYCROSS MOCLDY 51 36 56 SE8 30.34R JESUP FAIR 45 36 70 CALM 30.36S BAXLEY FAIR 50 32 50 SE5 30.33S BRUNSWICK PTCLDY 41 36 81 CALM 30.36F SAINT SIMONS PTCLDY 43 36 76 N5 30.35S $$ SCZ027-028-034-036>038-045-046-048>050-GAZ119-141-010200- ...LAKE AND SUPPLEMENTAL COASTAL OBSERVATIONS... STATION/POSITION TIME TEMP WIND PRES WAVE SWELL AIR SEA DIR/SP/G HT/PER HT/PER/DIR (UTC) (F) (DEG/KT/KT) (MB) (FT/S) (FT/S/D) UPR LAKE MARION NOT AVBL WINYAH BAY 0000 40 250/ 1 1027.0 LAKE MURRAY 0100 46 CALM 1026.4S ACE BASIN NERRS NOT AVBL FORT PULASKI 0100 46 52 110/ 3/ 4 1028.7F SAPELO ISLAND 0100 40 40/ 2 1028.0S $$ ANZ835-935-AMZ111-154-330-350-352-354-370-450-454-472-010200- ...C-MAN AND BUOY OBSERVATIONS... STATION/POSITION TIME TEMP WIND PRES WAVE SWELL AIR SEA DIR/SP/G HT/PER HT/PER/DIR (UTC) (F) (DEG/KT/KT) (MB) (FT/S) (FT/S/D) BUOY 41004 0050 52 69 10/ 4/ 6 1028.2R 4/11 3/11 BUOY 41008 0050 52 54 60/ 8/ 10 1027.9R 3/ 7 3/ 70/ 7 FOLLY BEACH CMAN 0100 48 170/ 5/ 6 1028.7R CAPERS NEARSHORE 0000 47 190/ 4/ 4 N/A FRIPP NEARSHORE 0000 48 180/ 6/ 6 1027.3R STATION/POSITION TIME TEMP WIND PRES WAVE SWELL AIR SEA DIR/SP/G HT/PER HT/PER/DIR (UTC) (F) (DEG/KT/KT) (MB) (FT/S) (FT/S/D) 5E ST. MARYS GA 0021 56 N/A 4/ 6 FRYING PAN BUOY 0050 46 63 CALM / 2 1028.7F 3/10 3/ 90/10 BUOY 41025 0050 43 71 300/ 14/ 17 1027.1S 5/10 3/ 40/10 CAPE LOOKOUT NC 0100 43 310/ 6/ 7 1027.6R BUOY 41002 0050 54 70 330/ 16/ 21 1027.0R 11/ 8 10/360/ 8 BUOY 41010 0020 62 73 60/ 8/ 14 1026.5R ST AUGUSTINE FL 0100 57 10/ 12/ 13 1027.0R $$

USA.gov is the U.S. government's official web portal to all federal, state and local government web resources and services.